GFSGL_850_thetae_159.txt.gz
Theta_e
299 299 299 299 299 299 300 299 298 298 298 298 298 297 297 297 297 297 297 297 297 297 297 297 297 297 298 298 300 302 304 310 315 317 318 317 319 317 321 318 320 317 319
298 298 298 298 297 297 297 297 297 297 296 296 296 296 296 296 296 296 296 295 295 296 296 295 295 295 295 294 295 296 297 297 300 302 305 310 315 317 316 316 319 319 320
297 297 297 296 296 295 295 295 296 296 296 296 295 296 295 296 296 295 295 295 295 295 295 295 295 294 294 294 293 293 294 294 294 295 296 298 303 308 311 314 317 314 318
296 296 296 296 295 295 295 295 295 295 295 295 295 294 294 294 294 294 294 294 293 293 293 292 292 291 291 291 291 290 291 292 292 293 293 294 294 295 299 307 310 310 314
297 296 295 295 294 294 294 294 294 293 293 293 293 293 293 293 292 293 293 293 292 291 291 290 289 289 288 287 287 287 287 288 289 290 292 293 294 295 296 298 301 305 308
295 295 294 293 293 293 293 293 293 292 292 292 292 292 291 291 291 290 290 290 290 289 289 289 289 289 289 288 288 286 284 285 286 288 289 291 292 293 294 297 296 297 301
291 292 292 292 292 292 291 291 291 291 290 290 290 289 289 288 287 288 287 287 286 286 286 286 286 286 286 286 287 287 288 287 285 285 286 287 288 289 291 291 291 291 292
290 292 290 291 290 290 290 289 289 289 287 287 286 286 285 285 285 285 286 286 285 285 285 284 284 283 283 283 283 283 284 284 284 284 285 287 288 287 287 288 288 290 291
289 289 289 289 289 289 288 288 288 286 285 285 285 284 284 284 284 284 285 285 285 285 284 283 282 280 280 279 281 282 282 283 284 285 286 286 288 288 288 289 289 289 291
287 288 288 288 288 288 286 286 285 284 284 283 283 283 283 283 282 282 283 283 283 283 282 281 280 279 279 279 279 280 281 282 282 283 284 285 286 286 288 290 290 290 290
287 286 287 287 286 285 284 284 283 282 282 282 282 282 282 281 281 281 282 281 279 279 278 278 277 277 277 277 278 279 278 279 281 281 282 283 284 285 286 288 289 290 291
284 285 285 285 284 283 282 282 281 280 280 281 281 281 280 280 279 279 279 279 278 277 277 276 276 275 275 275 276 277 278 279 279 280 280 280 280 281 282 284 286 287 288
284 284 284 283 281 281 280 280 279 280 280 280 280 279 279 278 278 278 278 278 277 276 275 274 274 275 275 275 275 275 275 275 276 277 276 277 277 277 278 280 283 284 286
283 282 281 280 279 279 279 279 279 279 278 278 277 277 277 277 276 276 276 275 275 275 275 274 274 274 274 274 274 274 273 273 272 272 274 276 275 275 276 277 278 280 282
280 279 279 278 278 278 278 278 277 277 276 276 276 275 275 274 274 272 272 273 273 273 273 273 274 274 274 273 272 271 271 272 272 271 272 273 274 274 274 275 276 275 276
278 278 278 277 277 277 277 276 276 275 275 274 273 273 273 273 273 272 273 273 273 272 273 272 272 271 271 270 270 269 269 269 270 270 270 270 271 271 271 272 272 272 273
277 277 277 277 277 277 276 275 275 274 273 273 272 272 272 272 272 272 272 272 272 272 272 271 270 269 269 268 268 267 267 267 267 268 268 268 268 269 269 270 269 270 271
276 276 276 276 275 275 275 274 274 274 274 273 273 272 272 272 272 272 272 272 272 271 270 270 269 268 268 267 267 266 266 266 266 266 266 267 267 267 267 268 268 268 269
275 275 275 274 274 274 273 273 273 273 273 273 273 272 272 272 272 271 271 270 270 270 269 268 268 267 267 266 266 265 265 265 264 264 265 265 266 266 267 268 266 267 268
274 274 274 273 273 273 272 272 272 272 271 271 271 271 271 271 271 271 270 269 269 268 267 267 266 266 266 266 265 265 264 264 264 264 264 264 264 265 266 266 266 267 267
273 273 273 272 272 272 271 271 271 271 271 270 270 270 269 269 269 269 268 268 267 267 266 266 266 265 265 265 264 264 264 264 263 263 263 263 264 265 266 265 266 266 266
272 272 271 271 271 271 270 270 270 270 269 269 269 269 269 268 268 268 267 267 267 266 266 265 265 265 264 264 263 263 263 263 263 263 263 263 264 265 265 264 265 266 266
271 270 270 270 270 270 269 269 269 269 269 269 268 268 268 268 268 267 267 266 266 266 266 265 265 265 264 264 263 262 262 262 262 262 263 264 265 265 264 264 265 266 266
270 269 269 269 269 269 269 269 268 268 268 268 268 267 267 267 267 266 266 266 266 265 265 265 264 264 264 263 263 263 262 262 262 262 263 264 265 264 264 264 265 265 266
269 269 269 268 268 268 268 268 268 268 267 267 267 267 266 266 266 265 265 265 265 265 265 264 264 264 263 263 263 262 262 262 262 263 264 264 264 265 265 265 265 265 266
269 269 268 268 268 268 268 268 268 267 267 267 267 266 266 265 265 265 265 264 264 264 264 264 264 263 263 263 262 262 262 262 263 263 263 264 265 265 265 265 265 265 266

GFSGL_850_thetae_162.txt.gz
Theta_e
300 300 299 299 299 299 299 299 299 298 297 297 297 297 297 297 296 296 296 296 296 296 296 295 295 295 295 295 294 294 294 294 294 295 295 295 295 296 296 296 298 305 310
299 299 299 299 298 298 297 297 297 297 297 297 297 296 297 296 296 296 296 296 295 295 294 294 293 293 293 292 293 292 292 292 291 292 292 293 293 293 294 295 296 295 296
299 298 298 297 297 297 297 296 296 296 296 296 296 296 296 295 295 294 294 294 293 293 292 292 291 291 290 290 290 289 289 289 288 288 289 288 289 290 291 292 292 294 296
297 296 296 296 296 296 296 295 295 296 296 295 294 295 294 294 293 293 292 292 291 290 289 288 288 288 288 288 288 288 288 288 288 288 289 288 288 288 288 289 291 290 290
296 298 300 299 297 296 295 294 294 294 294 294 293 293 293 292 291 291 290 289 289 288 288 288 287 287 287 287 286 286 286 286 286 286 286 287 287 287 286 287 288 289 289
300 298 297 297 295 293 293 293 293 292 292 291 292 291 291 290 289 288 288 287 287 287 287 287 287 286 286 286 286 285 284 284 284 284 284 284 284 284 285 285 286 286 288
296 295 295 294 292 291 292 291 291 291 291 290 289 288 288 288 287 287 287 286 286 286 286 285 285 285 284 285 285 285 284 283 282 282 282 283 283 283 282 283 286 287 287
295 293 292 292 291 290 290 290 290 289 289 287 286 286 286 286 285 286 286 285 285 285 284 284 283 282 282 283 283 283 283 282 282 281 280 281 281 281 281 282 284 286 288
292 291 290 291 289 289 289 288 288 287 287 285 285 285 285 284 284 284 284 284 284 284 283 282 281 281 281 281 282 281 280 279 279 279 279 280 281 281 280 281 282 283 285
292 292 291 289 288 288 287 287 286 286 285 284 284 284 283 283 282 282 283 283 282 282 282 281 281 281 280 279 278 277 277 277 277 278 278 279 278 279 280 280 279 278 280
296 293 289 286 286 286 286 284 285 284 283 283 282 282 282 282 281 280 280 281 281 280 280 280 279 279 278 277 276 276 275 276 276 276 276 276 276 276 276 277 278 277 278
292 289 286 285 285 284 284 284 283 282 282 282 282 281 280 280 279 279 279 279 279 278 277 277 276 276 275 275 275 275 275 275 275 275 275 275 274 274 274 274 275 276 277
288 285 284 284 282 283 283 281 281 281 281 280 280 279 279 279 278 278 278 278 277 277 277 276 275 274 274 274 274 273 273 273 273 273 273 273 272 272 273 273 274 275 277
283 283 283 282 281 281 281 280 280 279 279 279 279 278 278 278 277 276 277 277 277 277 276 275 274 274 274 273 273 272 271 271 271 271 271 272 271 272 271 271 272 272 274
282 282 281 281 281 279 279 278 278 278 278 277 277 277 277 276 276 275 275 276 275 275 274 274 274 274 273 273 272 271 270 270 270 269 270 270 270 270 270 269 269 270 270
280 280 280 280 279 278 277 277 276 276 276 276 275 275 275 274 274 273 274 274 273 272 273 272 272 272 272 271 270 269 269 268 268 268 268 267 268 267 268 268 267 267 268
280 279 279 278 277 276 276 276 276 275 275 274 274 274 273 273 273 272 272 272 271 271 271 271 271 271 270 270 269 268 268 267 267 266 266 266 266 266 266 266 266 266 267
277 277 276 276 276 276 276 275 275 274 274 274 273 273 272 272 272 271 271 271 270 270 271 271 270 270 269 268 268 267 266 266 265 265 265 264 265 265 265 265 266 266 266
276 275 275 275 275 275 274 274 274 274 274 273 273 272 272 271 271 270 270 270 270 270 270 269 269 268 268 267 267 266 266 265 264 264 263 263 264 264 265 265 265 265 265
275 275 274 274 273 273 273 273 273 273 273 273 272 272 271 271 271 271 270 270 269 269 269 269 268 268 267 266 266 265 265 264 264 263 263 263 263 264 264 265 265 265 264
274 274 273 273 273 273 273 272 272 272 272 271 271 271 270 270 269 269 269 269 269 268 268 267 267 267 266 265 265 264 264 264 263 263 263 263 263 263 264 265 265 265 264
273 273 272 272 272 272 272 272 271 271 271 271 270 270 269 269 269 268 268 268 267 267 266 266 266 266 265 264 264 264 263 263 262 262 262 262 262 263 264 265 265 264 264
272 272 272 272 272 271 271 271 271 270 270 270 269 269 269 268 268 268 267 267 267 267 266 266 266 265 265 264 264 263 263 262 262 262 262 262 263 263 264 264 264 264 264
271 271 271 271 271 270 270 270 270 269 269 269 268 268 268 267 267 267 267 266 266 266 266 265 265 265 264 264 264 263 263 262 262 262 262 262 263 264 264 264 264 264 264
271 271 270 270 270 270 269 269 269 268 268 268 268 267 267 267 267 267 266 266 266 265 265 265 265 264 264 264 263 263 262 262 262 262 262 263 263 263 263 264 264 265 265
270 270 270 269 269 268 268 268 268 268 267 267 267 267 267 266 266 266 265 265 265 265 265 265 265 264 264 263 263 263 263 263 263 263 262 262 262 264 264 265 265 265 265

GFSGL_850_thetae_165.txt.gz
Theta_e
304 304 303 302 301 300 299 299 299 299 298 297 297 297 296 296 296 295 295 296 295 295 295 295 294 293 293 293 292 292 291 290 288 290 289 290 291 291 291 292 292 292 293
301 300 299 299 299 299 299 298 298 297 297 296 296 296 296 295 295 295 295 294 294 294 293 293 292 291 291 291 290 290 290 289 289 289 290 289 289 290 290 291 291 291 291
299 299 299 298 298 298 297 297 297 296 296 296 295 295 295 294 294 294 294 293 293 292 292 291 291 290 291 290 289 289 289 288 288 288 288 288 288 289 289 289 290 291 290
299 298 298 297 297 296 296 296 296 295 295 295 295 294 293 293 292 292 292 292 291 291 290 290 289 289 289 288 288 288 287 287 287 287 287 287 286 286 286 287 289 288 289
298 298 297 297 297 299 300 297 295 294 294 293 293 292 292 291 291 290 290 290 290 289 289 289 288 288 287 287 287 286 286 286 286 286 285 284 284 284 284 283 284 285 286
298 297 296 298 299 297 295 294 293 292 291 291 291 291 290 290 289 288 288 288 288 288 288 287 287 286 286 286 286 285 284 284 283 282 281 281 282 282 282 281 281 282 282
296 296 297 297 295 294 293 292 291 291 290 290 290 289 289 288 287 287 287 287 287 286 286 286 286 285 285 285 284 284 283 282 281 279 279 279 279 278 278 280 280 280 281
295 295 296 295 294 293 291 291 290 289 289 288 288 287 286 286 286 286 286 285 285 285 285 284 284 283 283 282 282 282 281 281 280 280 279 278 277 277 277 277 277 278 280
294 294 293 292 291 290 290 289 289 288 287 286 286 285 284 284 284 285 284 284 284 283 283 282 281 281 280 279 280 279 279 280 280 279 278 278 277 276 276 277 277 276 278
293 292 290 289 290 289 288 288 287 286 285 284 284 283 283 282 282 283 283 283 283 282 281 280 279 279 279 278 279 278 278 278 278 278 278 277 276 276 276 275 274 274 273
292 290 289 288 287 287 288 287 285 284 284 283 282 282 282 281 281 281 281 282 281 280 280 279 279 279 278 277 276 276 276 276 276 276 276 275 275 275 275 274 274 272 271
291 289 288 289 289 286 287 285 282 282 283 281 281 281 281 280 280 280 280 279 279 279 279 278 278 277 276 276 276 276 276 275 275 275 274 274 274 274 273 273 273 272 271
289 289 290 289 288 286 285 282 280 280 281 281 280 279 280 279 279 279 278 278 278 278 277 276 275 275 275 275 275 274 274 274 273 273 273 272 272 271 272 272 273 272 273
290 288 288 286 285 282 281 280 279 280 280 279 279 279 278 278 277 277 277 277 277 277 276 275 274 274 273 273 273 273 272 272 271 271 271 271 270 271 271 271 271 271 272
287 286 285 284 281 280 278 278 278 277 277 278 278 277 277 277 276 276 275 275 275 275 274 274 273 273 273 273 273 272 271 271 270 270 270 270 269 269 269 269 269 269 268
285 283 282 281 280 278 277 277 277 276 276 277 277 276 276 276 275 274 274 274 275 274 273 273 273 272 272 272 271 271 270 270 269 268 268 268 268 267 267 267 267 267 266
281 282 281 278 277 276 276 276 277 275 275 276 275 275 275 274 274 273 274 274 273 272 272 272 271 271 271 270 270 269 269 268 267 266 266 267 266 266 266 266 266 266 266
280 278 277 276 276 276 275 275 275 275 275 275 274 274 273 273 272 272 273 272 272 271 271 271 270 270 269 269 268 268 267 267 266 266 265 265 265 265 265 265 265 265 265
278 276 276 275 275 275 275 275 275 275 274 273 273 272 272 272 271 271 271 271 271 270 270 269 269 269 268 268 267 267 267 266 266 265 265 264 264 264 264 264 265 265 265
276 275 274 274 274 275 275 274 274 273 273 273 272 271 271 271 271 270 270 270 270 269 269 269 268 268 267 267 267 266 266 266 265 264 264 264 263 263 263 263 264 264 264
275 274 274 276 276 274 273 273 273 272 272 272 271 271 271 271 271 270 270 269 268 268 268 268 268 267 267 266 266 266 266 265 264 263 263 263 263 263 263 263 264 264 264
275 276 275 273 273 272 272 272 272 271 271 271 270 270 270 270 270 269 269 268 268 268 267 267 267 267 266 265 265 265 265 264 264 263 263 262 263 263 263 263 264 264 264
275 273 272 272 272 272 271 271 271 271 270 270 270 270 270 269 269 268 268 268 267 267 267 266 266 266 265 265 265 264 264 264 263 263 262 262 262 263 263 263 264 264 264
272 272 272 271 271 271 270 270 270 270 270 269 269 269 269 268 268 268 268 267 267 266 266 266 265 265 265 265 265 264 264 263 263 263 262 262 263 263 263 263 264 264 264
271 271 271 270 270 270 270 270 269 269 269 269 269 268 268 268 268 268 267 266 266 266 266 265 265 265 265 264 264 264 263 263 263 262 263 263 263 263 263 263 264 264 264
270 270 270 270 270 269 269 269 269 268 268 268 268 267 267 267 267 267 266 266 265 265 265 265 265 265 264 264 264 264 263 263 263 263 263 263 263 262 263 263 264 265 265

GFSGL_850_thetae_168.txt.gz
Theta_e
308 307 307 307 306 306 305 305 303 301 300 299 299 298 297 296 296 296 296 296 296 296 296 295 295 293 293 293 292 291 290 290 290 290 290 290 291 292 292 292 292 291 291
305 305 304 303 302 301 299 299 299 299 298 297 296 296 296 295 295 295 295 295 295 294 294 293 293 292 291 292 291 291 290 290 289 289 289 289 289 290 289 290 291 290 290
304 303 301 299 299 298 298 298 298 297 296 296 295 295 295 295 295 294 294 294 293 292 291 291 291 291 291 291 290 290 290 289 289 288 288 288 288 288 289 289 289 289 289
302 301 299 298 298 298 297 297 296 296 295 294 294 294 294 294 293 293 292 292 291 291 291 290 290 290 289 289 289 289 288 288 288 287 287 287 287 288 288 288 288 288 288
301 299 298 297 297 296 296 295 295 294 294 293 293 293 293 292 292 291 290 289 289 290 289 288 288 288 288 288 288 287 287 287 287 287 286 286 286 286 286 285 285 285 286
300 299 298 297 296 295 294 294 295 294 293 292 292 291 291 290 290 289 289 288 288 288 288 287 287 287 287 287 286 286 286 286 285 285 284 284 283 282 282 282 282 282 282
300 298 297 296 294 294 295 294 293 292 291 291 290 289 289 288 288 287 287 287 286 286 286 285 285 285 286 285 284 284 284 284 283 282 282 281 280 279 279 280 280 280 279
300 298 296 294 293 293 293 291 290 290 289 289 289 288 287 286 286 286 286 285 285 285 285 284 284 284 284 284 284 283 282 282 281 280 280 279 278 278 277 277 277 277 279
299 297 295 294 294 293 292 290 289 288 287 288 286 287 285 285 285 284 284 284 283 283 283 283 282 283 283 283 282 281 281 280 280 279 279 278 277 276 276 277 278 277 278
300 298 295 293 293 292 290 289 287 287 287 287 285 285 283 282 283 283 283 283 282 282 282 281 281 281 281 281 280 279 279 279 279 279 278 277 276 276 276 275 275 274 273
298 296 294 292 291 289 288 287 287 287 285 284 284 284 282 281 282 282 282 282 281 281 280 280 279 279 279 278 278 278 278 277 276 276 276 276 276 276 275 274 273 272 272
296 295 293 291 289 287 286 285 284 286 285 283 283 282 281 279 279 280 280 280 280 280 279 278 278 278 277 277 277 276 276 275 275 275 275 275 275 274 273 272 271 271 271
294 292 290 288 287 285 284 285 287 285 282 281 282 281 280 279 279 278 278 278 279 278 278 277 277 276 276 276 276 275 275 275 275 274 274 274 273 272 271 271 271 271 271
292 291 288 286 285 285 286 286 285 282 282 281 280 279 278 277 277 276 277 277 277 277 277 276 276 275 275 275 274 274 274 274 273 273 273 272 271 271 270 270 270 270 271
288 288 287 286 286 285 284 284 283 281 279 279 279 278 277 276 276 275 276 275 276 276 275 275 274 274 274 273 273 273 272 272 271 271 271 271 270 269 269 268 268 268 268
287 285 285 284 282 281 281 279 277 276 277 277 276 275 275 275 275 274 273 273 274 275 274 274 274 273 273 273 272 272 271 271 270 270 270 269 269 268 268 267 267 266 266
283 283 282 280 279 279 277 277 278 275 274 274 275 274 274 274 273 272 271 274 274 273 273 273 272 272 272 271 271 271 271 270 269 269 269 268 268 267 266 266 266 266 265
281 281 280 280 279 278 278 276 276 276 275 274 274 274 273 273 272 271 273 273 273 273 272 272 271 271 271 270 270 270 269 269 268 268 268 267 266 265 266 265 265 264 264
279 279 278 278 277 277 276 275 274 274 273 273 273 273 273 272 271 272 273 272 272 271 271 270 270 270 270 269 269 269 268 268 267 267 267 266 265 265 265 264 264 264 264
278 277 277 277 276 274 273 273 273 273 273 273 272 272 272 272 272 272 272 271 271 270 270 270 269 269 269 268 268 268 267 267 267 266 266 265 265 264 264 264 264 263 264
275 275 275 274 272 273 273 273 275 274 273 272 272 271 271 271 271 270 270 270 270 269 269 269 269 268 268 267 267 267 266 266 266 266 265 265 264 264 264 263 263 263 264
275 275 274 273 274 275 275 275 273 272 272 271 271 271 271 271 270 270 269 269 269 268 268 268 268 268 267 266 266 266 266 266 265 265 264 264 264 264 263 263 263 263 264
275 275 275 275 275 274 272 271 271 271 271 271 270 270 270 269 269 269 269 268 268 268 268 268 267 267 266 266 265 265 265 265 265 264 264 263 263 263 263 263 263 263 264
274 274 274 272 271 271 271 271 270 270 270 270 270 269 269 268 268 268 268 268 268 268 267 267 266 266 266 266 265 265 264 264 264 264 263 263 263 263 263 263 263 263 264
271 271 271 271 270 270 270 270 270 269 269 269 269 268 268 268 268 268 268 267 267 267 267 266 266 266 266 265 265 264 264 264 264 263 263 263 263 263 263 263 263 263 264
271 271 270 270 270 270 269 269 268 268 268 268 268 268 268 268 268 267 267 267 267 266 266 266 266 266 265 265 265 264 264 264 264 263 263 263 263 263 263 263 264 264 264

GFSGL_850_thetae_171.txt.gz
Theta_e
310 309 309 308 308 308 309 310 310 309 308 306 304 301 300 299 299 298 297 296 296 296 295 295 295 295 294 294 294 293 292 292 292 291 291 291 291 291 291 291 291 290 290
309 308 308 307 307 306 306 305 304 303 300 299 298 298 297 296 296 296 295 295 295 295 295 294 294 293 292 292 292 292 292 292 291 291 290 290 290 290 290 290 290 290 289
307 306 305 305 304 303 302 300 299 298 298 297 297 296 295 295 295 295 294 294 294 294 293 292 292 292 292 292 291 291 291 291 290 290 289 289 289 289 289 289 289 289 289
305 304 303 303 301 300 299 298 298 297 297 296 295 295 294 294 294 294 293 293 293 292 291 291 291 290 290 290 290 290 290 289 289 289 288 288 288 289 288 288 289 288 288
306 305 304 302 300 299 298 297 297 296 295 295 294 293 293 293 293 293 292 291 291 290 290 289 289 289 289 289 289 289 288 288 288 288 288 287 287 287 287 286 286 286 286
307 306 304 302 300 299 298 297 296 295 294 293 293 293 293 293 292 292 291 290 289 289 289 288 288 288 288 288 287 287 287 287 287 287 286 286 285 285 284 284 284 284 283
307 305 302 300 298 297 295 294 294 293 292 292 292 291 291 291 291 290 290 288 287 287 286 286 285 285 285 285 285 285 285 285 285 284 284 283 283 283 282 282 282 281 280
307 305 302 300 298 296 294 293 292 292 293 292 291 290 290 289 289 287 287 288 286 285 285 285 284 284 284 284 283 283 283 283 283 283 282 281 281 280 279 279 279 279 279
307 306 304 302 299 296 293 292 291 291 290 289 288 288 288 288 287 286 285 285 285 284 284 283 282 282 283 282 282 282 282 281 281 280 280 279 279 278 278 278 278 279 279
306 305 302 299 296 294 292 291 290 289 288 287 287 286 285 287 286 284 283 283 284 283 283 281 281 281 281 281 281 281 281 280 280 279 278 278 278 277 277 276 276 276 276
303 301 300 298 295 293 291 290 288 287 286 285 285 284 283 285 283 282 282 282 282 282 281 281 280 280 279 279 279 280 279 279 278 278 277 278 277 277 276 275 275 274 273
300 298 297 296 294 292 289 288 287 286 285 284 284 283 282 281 281 281 281 281 281 281 280 279 278 278 278 278 278 278 277 277 276 276 276 276 276 275 275 274 273 272 271
297 297 294 292 291 290 289 287 285 284 284 284 283 281 281 281 279 279 279 279 280 279 278 278 278 278 276 276 277 276 275 275 274 274 274 274 274 273 273 273 272 271 271
295 294 292 290 289 288 286 285 284 283 283 282 282 282 282 279 278 278 278 278 278 278 277 277 276 276 276 275 274 274 274 273 273 274 273 273 272 272 271 271 271 271 271
291 290 289 288 287 285 284 282 282 281 281 282 282 282 281 279 278 277 277 277 277 277 277 276 275 275 275 275 274 273 273 273 272 272 272 272 271 270 270 270 270 269 268
287 287 286 285 284 283 282 281 280 280 279 279 279 279 279 277 275 275 275 276 277 276 275 275 275 275 274 273 273 272 272 272 272 271 271 270 270 269 269 269 268 267 267
285 285 284 283 283 282 281 280 280 277 277 278 278 276 276 275 274 274 273 274 274 276 275 274 274 273 272 272 272 272 271 271 270 270 269 269 268 268 268 267 267 266 266
281 282 282 282 281 280 280 279 279 278 277 276 276 276 275 273 274 273 272 274 275 273 273 273 272 272 271 271 271 271 271 270 270 269 269 268 267 267 267 266 266 265 265
278 278 279 279 279 278 278 277 276 276 275 275 275 273 272 272 272 271 272 274 272 272 272 271 271 271 270 270 270 270 270 269 269 268 268 267 267 266 266 265 265 265 264
276 276 277 277 276 276 275 275 275 274 274 274 274 273 273 275 274 273 274 272 271 271 271 270 270 270 269 269 269 269 269 269 268 267 267 267 266 265 265 265 264 264 264
275 275 275 275 275 275 275 275 274 274 273 273 274 274 274 273 271 271 270 270 270 270 270 270 269 269 269 269 268 268 268 268 267 267 266 266 265 265 264 264 264 264 263
275 275 275 275 275 275 274 274 274 274 274 274 274 273 271 270 270 270 270 270 270 270 269 269 269 269 268 268 268 268 267 267 266 266 266 265 265 265 264 263 263 263 263
274 274 274 274 274 274 274 274 273 273 273 273 271 269 269 270 270 269 269 269 269 269 269 269 269 268 268 267 267 267 267 266 266 265 265 265 264 264 263 263 263 263 263
274 274 274 274 274 273 273 273 272 271 269 269 269 269 269 269 269 269 269 268 269 268 268 268 268 268 267 267 266 266 266 265 265 265 264 264 264 263 263 263 263 263 263
274 274 273 273 271 270 270 269 269 269 269 269 269 268 268 268 268 268 268 268 268 268 268 267 267 267 267 266 266 266 265 265 264 264 264 263 263 263 263 263 263 263 263
271 270 270 270 270 270 269 269 269 268 268 268 268 268 268 268 268 268 267 267 267 267 267 267 267 266 266 266 266 265 265 265 264 264 263 263 263 263 263 263 263 263 263

GFSGL_850_thetae_174.txt.gz
Theta_e
310 310 310 309 309 309 309 309 309 311 313 314 314 313 310 307 305 303 301 301 300 300 300 299 298 296 296 296 295 294 294 294 294 293 292 292 291 291 291 291 291 291 291
310 309 309 309 309 308 308 307 307 307 307 307 306 304 302 300 299 299 298 297 296 296 296 295 295 295 295 294 293 293 293 293 293 292 291 291 290 290 290 290 290 290 290
310 309 309 308 308 307 307 305 304 304 303 302 300 299 298 298 297 296 295 295 295 295 295 294 294 294 293 292 292 292 292 291 291 291 290 290 290 289 289 289 289 289 289
310 309 308 308 307 305 304 303 302 301 299 298 298 298 297 296 295 295 294 294 294 294 294 293 292 291 291 291 291 291 290 290 290 289 288 288 288 288 288 289 289 288 288
310 309 309 307 306 304 302 301 299 297 296 296 296 296 295 294 294 294 293 294 293 293 293 291 290 290 289 289 289 289 289 288 287 287 286 286 286 287 287 286 286 286 286
309 308 308 306 304 303 302 300 298 296 296 296 296 295 294 293 293 293 293 292 292 291 290 289 289 288 288 288 288 287 287 287 286 285 285 285 285 285 285 285 284 285 283
307 307 306 306 304 303 302 300 299 297 295 294 294 293 293 292 292 292 291 291 289 289 288 288 287 287 286 286 286 285 285 285 284 284 284 284 284 284 283 283 283 281 281
307 307 307 306 304 302 300 299 296 294 293 292 291 291 290 290 290 290 289 289 288 286 286 286 286 285 285 285 285 284 284 283 283 283 283 282 282 281 281 281 280 280 279
306 306 305 304 302 300 298 296 295 292 291 290 290 289 289 288 288 288 288 287 286 286 284 284 284 283 284 284 284 283 283 282 282 281 281 281 280 280 279 279 278 279 279
303 303 302 302 300 299 297 296 294 292 291 290 289 289 288 287 286 286 285 284 284 284 283 283 282 281 282 281 282 282 280 281 280 279 279 278 278 278 277 277 277 277 277
302 303 302 300 299 297 295 293 292 291 289 288 288 288 287 286 285 284 285 283 283 282 283 282 281 280 281 280 280 280 280 279 279 278 278 276 276 277 276 276 275 275 274
301 301 302 300 297 295 294 292 290 289 288 287 287 286 285 284 284 282 281 281 281 281 281 280 279 278 279 279 278 278 278 278 277 277 277 275 276 275 275 274 274 273 272
299 299 299 299 297 296 293 290 288 287 287 286 285 284 283 282 281 280 281 280 279 280 279 278 277 277 277 276 277 277 277 276 276 276 275 275 275 275 274 273 272 272 271
297 295 294 294 292 293 292 289 287 287 285 285 284 283 283 281 280 279 279 280 280 279 278 277 277 276 276 275 276 276 275 275 274 274 274 274 273 273 272 272 272 272 271
294 293 290 287 287 287 286 286 286 285 284 285 283 283 283 281 280 280 280 279 278 277 276 276 276 276 275 275 275 275 274 274 273 273 273 272 272 271 271 271 270 270 269
289 289 288 286 285 284 284 283 282 282 282 282 282 282 282 281 280 279 279 279 277 277 278 276 275 275 275 275 274 273 273 273 272 272 271 271 271 270 270 270 269 269 268
285 284 283 283 283 283 282 281 281 280 280 279 280 280 280 280 279 278 277 277 275 276 275 274 276 277 274 273 273 272 272 272 271 271 270 270 269 269 269 268 268 267 267
280 279 279 280 280 280 280 280 279 279 278 277 277 277 278 277 277 276 276 275 274 276 276 276 274 274 273 272 272 272 271 271 270 270 269 269 268 268 267 267 267 267 266
278 278 277 278 278 277 277 277 277 276 276 276 275 274 275 275 275 274 275 274 275 275 274 274 273 272 272 271 271 271 270 270 269 269 268 268 267 267 267 266 266 266 265
276 276 276 276 276 276 276 276 275 275 275 275 275 274 274 273 273 273 274 274 274 274 274 272 271 271 271 270 270 270 270 269 269 268 267 267 267 267 266 266 265 265 264
276 275 275 274 274 274 274 274 274 274 274 274 274 274 273 274 274 273 273 273 273 272 270 270 270 270 270 270 269 269 269 268 268 267 266 266 266 266 266 265 265 264 264
275 274 274 274 274 273 273 273 274 273 273 273 273 273 272 272 272 272 272 272 271 270 270 270 269 269 269 269 268 268 268 267 267 266 266 266 266 266 265 265 264 264 263
274 274 274 274 273 273 273 273 273 273 273 273 273 272 272 272 273 272 270 269 269 269 269 269 269 268 268 268 268 267 267 267 266 266 266 266 265 265 265 264 264 264 263
273 273 273 273 273 273 273 273 273 273 273 272 272 272 272 270 269 269 269 269 269 268 269 269 268 268 268 267 267 267 267 266 266 266 265 265 265 265 264 264 264 263 263
273 273 273 273 272 272 272 272 272 271 270 270 269 269 269 269 269 269 268 268 268 268 268 268 268 268 267 267 267 266 266 266 266 265 265 264 264 264 264 263 263 263 263
273 272 272 271 270 270 270 270 270 269 269 269 269 269 269 269 269 268 268 268 268 268 267 267 267 267 267 267 267 266 266 266 265 265 264 264 264 264 263 263 263 263 263